Location: TAAA CAC
(31.8680°N, 109.5150°W)
Time: 21:11:25
(UTC-07:00)

BlueWalker 3 - Pass Details

Date: 19 March 2026
Orbit: 449 x 457 km, 53.2° (Epoch: 20 April)

Event Time Altitude Azimuth Distance (km) Brightness Sun altitude
Exits shadow 05:19:57 22° 294° (WNW) 1,040 3.0 -14.2°
Maximum altitude 05:21:54 46° 231° (SW) 620 2.0 -13.8°
Drops below altitude 10° 05:25:19 10° 157° (SSE) 1,578 4.7 -13.0°
Sets 05:27:29 0° 151° (SSE) 2,446 5.7 -12.6°
